WXM80 ListenWXM80 Stop

You find our weather info also at:

UK Metoffice

WeatherCloud

Weather Underground

Northeastern Weather Network

AWEKAS

Citizen Weather Observer Program (CWOP)

HAMweather, WeatherForYou, PWS Weather


Weather Underground History page Text

Daily Summary for January 31, 2018 Units:  English    Metric   Both
« Previous Day
Next Day »
Daily Weekly Monthly Yearly Custom
  High: Low: Average:
Temperature: TemperatureF °F 20.2 °F 27.1 °F
Dew Point: DewpointF °F 12.0 °F 16.9 °F
Humidity: Humidity % 45 % 65 %
Wind Speed: WindSpeedMPH mph 0.0 mph 3.7 mph
Wind Gust: WindSpeedGustMPH mph - -
Wind:- - WSW
Pressure: PressureIn in 29.81 in -
Precipitation: 0.00 in    
Historical Graphs
 
 
Tabular Data for January 31, 2018
Time Temperature Dew Point Pressure Wind Wind Speed Wind Gust Humidity Rainfall Rate (Hourly)
TemperatureF °F DewpointF °F PressureIn in Calm     Humidity % HourlyPrecipIn in
00:04 26.0 °F 18.8 °F 29.90 in NW 3.0 mph 5.8 mph 74 % 0.00 in
00:09 26.0 °F 18.8 °F 29.90 in North 4.7 mph 8.1 mph 74 % 0.00 in
00:15 25.9 °F 18.7 °F 29.90 in NNW 3.2 mph 7.0 mph 74 % 0.00 in
00:20 25.9 °F 18.7 °F 29.90 in NNW 5.9 mph 8.1 mph 74 % 0.00 in
00:25 25.9 °F 18.4 °F 29.90 in NNW 4.4 mph 9.2 mph 73 % 0.00 in
00:30 25.8 °F 18.0 °F 29.90 in NNW 7.2 mph 12.7 mph 72 % 0.00 in
00:35 25.7 °F 17.6 °F 29.91 in NNW 5.1 mph 10.4 mph 71 % 0.00 in
00:40 25.6 °F 17.5 °F 29.91 in NNW 4.8 mph 11.5 mph 71 % 0.00 in
00:45 25.5 °F 17.1 °F 29.91 in WNW 4.4 mph 12.0 mph 70 % 0.00 in
00:50 25.4 °F 17.0 °F 29.91 in NW 8.0 mph 11.5 mph 70 % 0.00 in
00:55 25.2 °F 16.8 °F 29.91 in NNW 5.8 mph 11.5 mph 70 % 0.00 in
01:00 25.1 °F 16.7 °F 29.91 in WNW 4.3 mph 9.2 mph 70 % 0.00 in
01:05 25.0 °F 16.6 °F 29.91 in NNW 5.6 mph 9.2 mph 70 % 0.00 in
01:10 24.9 °F 16.2 °F 29.91 in WNW 5.3 mph 13.0 mph 69 % 0.00 in
01:15 24.8 °F 16.4 °F 29.91 in NNW 5.0 mph 12.0 mph 70 % 0.00 in
01:20 24.8 °F 16.4 °F 29.91 in NNW 3.0 mph 9.2 mph 70 % 0.00 in
01:25 24.7 °F 16.3 °F 29.91 in NW 5.2 mph 11.5 mph 70 % 0.00 in
01:30 24.5 °F 15.8 °F 29.91 in NNW 4.3 mph 10.4 mph 69 % 0.00 in
01:35 24.5 °F 16.1 °F 29.91 in North 3.4 mph 8.1 mph 70 % 0.00 in
01:40 24.4 °F 15.7 °F 29.91 in NW 5.4 mph 8.1 mph 69 % 0.00 in
01:45 24.4 °F 15.7 °F 29.91 in NNW 5.8 mph 6.9 mph 69 % 0.00 in
01:50 24.3 °F 15.9 °F 29.92 in NNE 3.9 mph 11.5 mph 70 % 0.00 in
01:56 24.2 °F 15.5 °F 29.91 in NNW 5.6 mph 10.4 mph 69 % 0.00 in
02:01 24.2 °F 15.5 °F 29.92 in NW 5.3 mph 11.0 mph 69 % 0.00 in
02:06 24.2 °F 15.5 °F 29.92 in NW 6.3 mph 11.5 mph 69 % 0.00 in
02:11 24.1 °F 15.7 °F 29.92 in NW 4.7 mph 8.1 mph 70 % 0.00 in
02:16 24.1 °F 15.7 °F 29.92 in NNE 5.3 mph 11.5 mph 70 % 0.00 in
02:21 24.0 °F 16.0 °F 29.92 in NNW 3.6 mph 11.5 mph 71 % 0.00 in
02:26 24.0 °F 16.0 °F 29.92 in NW 3.2 mph 5.8 mph 71 % 0.00 in
02:31 23.9 °F 15.9 °F 29.92 in North 4.6 mph 8.1 mph 71 % 0.00 in
02:36 23.9 °F 15.9 °F 29.93 in North 6.2 mph 11.5 mph 71 % 0.00 in
02:41 23.8 °F 15.8 °F 29.93 in NNE 3.8 mph 6.9 mph 71 % 0.00 in
02:46 23.8 °F 15.8 °F 29.93 in North 3.8 mph 6.9 mph 71 % 0.00 in
02:51 23.7 °F 16.0 °F 29.93 in North 3.3 mph 5.8 mph 72 % 0.00 in
02:56 23.7 °F 16.0 °F 29.93 in WNW 3.9 mph 8.1 mph 72 % 0.00 in
03:01 23.6 °F 16.2 °F 29.94 in North 3.3 mph 6.9 mph 73 % 0.00 in
03:06 23.6 °F 16.2 °F 29.94 in WNW 0.7 mph 5.8 mph 73 % 0.00 in
03:11 23.6 °F 16.2 °F 29.94 in NW 1.2 mph 3.5 mph 73 % 0.00 in
03:16 23.5 °F 16.1 °F 29.94 in NW 5.5 mph 9.2 mph 73 % 0.00 in
03:21 23.5 °F 15.8 °F 29.94 in West 4.2 mph 5.0 mph 72 % 0.00 in
03:26 23.4 °F 15.7 °F 29.94 in NW 4.5 mph 9.2 mph 72 % 0.00 in
03:32 23.3 °F 15.6 °F 29.95 in NW 5.2 mph 11.5 mph 72 % 0.00 in
03:37 23.3 °F 15.3 °F 29.95 in WNW 4.5 mph 11.5 mph 71 % 0.00 in
03:42 23.2 °F 15.2 °F 29.95 in West 4.2 mph 11.5 mph 71 % 0.00 in
03:47 23.1 °F 15.1 °F 29.95 in WNW 4.5 mph 11.5 mph 71 % 0.00 in
03:52 23.0 °F 14.7 °F 29.96 in WNW 3.4 mph 11.5 mph 70 % 0.00 in
03:57 23.0 °F 14.7 °F 29.96 in WNW 3.1 mph 11.5 mph 70 % 0.00 in
04:02 22.9 °F 14.6 °F 29.96 in WNW 5.8 mph 10.4 mph 70 % 0.00 in
04:07 22.8 °F 14.5 °F 29.95 in NW 3.6 mph 5.8 mph 70 % 0.00 in
04:12 22.7 °F 14.4 °F 29.96 in NNW 4.0 mph 8.1 mph 70 % 0.00 in
04:17 22.7 °F 14.7 °F 29.96 in WNW 3.2 mph 5.8 mph 71 % 0.00 in
04:22 22.6 °F 14.3 °F 29.96 in NW 6.2 mph 9.2 mph 70 % 0.00 in
04:27 22.5 °F 14.5 °F 29.97 in NW 2.2 mph 6.9 mph 71 % 0.00 in
04:32 22.4 °F 14.4 °F 29.97 in NNE 3.6 mph 11.5 mph 71 % 0.00 in
04:37 22.3 °F 14.0 °F 29.97 in North 5.1 mph 10.4 mph 70 % 0.00 in
04:42 22.2 °F 14.2 °F 29.97 in NW 3.6 mph 9.0 mph 71 % 0.00 in
04:47 22.2 °F 13.9 °F 29.97 in NNW 2.6 mph 9.2 mph 70 % 0.00 in
04:52 22.1 °F 14.1 °F 29.97 in WNW 3.6 mph 5.8 mph 71 % 0.00 in
04:57 22.0 °F 14.0 °F 29.97 in NW 4.9 mph 6.9 mph 71 % 0.00 in
05:02 22.0 °F 13.7 °F 29.97 in NW 4.0 mph 11.5 mph 70 % 0.00 in
05:08 21.9 °F 13.9 °F 29.98 in WNW 2.1 mph 10.4 mph 71 % 0.00 in
05:13 21.8 °F 13.5 °F 29.98 in NW 3.9 mph 6.0 mph 70 % 0.00 in
05:18 21.7 °F 13.7 °F 29.98 in West 2.3 mph 8.1 mph 71 % 0.00 in
05:23 21.7 °F 13.7 °F 29.99 in WNW 3.6 mph 5.8 mph 71 % 0.00 in
05:28 21.6 °F 13.6 °F 29.99 in NW 3.2 mph 6.9 mph 71 % 0.00 in
05:33 21.5 °F 13.5 °F 29.98 in WNW 5.1 mph 8.1 mph 71 % 0.00 in
05:38 21.5 °F 13.5 °F 29.99 in NW 4.5 mph 8.1 mph 71 % 0.00 in
05:43 21.4 °F 13.5 °F 29.99 in NNW 2.9 mph 9.2 mph 71 % 0.00 in
05:48 21.3 °F 13.4 °F 30.00 in NNE 4.1 mph 8.1 mph 71 % 0.00 in
05:53 21.3 °F 13.4 °F 30.00 in NW 6.8 mph 11.0 mph 71 % 0.00 in
05:58 21.2 °F 13.3 °F 30.00 in NNW 5.1 mph 8.1 mph 71 % 0.00 in
06:03 21.1 °F 12.8 °F 30.00 in WNW 3.7 mph 9.2 mph 70 % 0.00 in
06:08 21.1 °F 12.8 °F 30.00 in WNW 4.9 mph 11.5 mph 70 % 0.00 in
06:13 21.0 °F 12.7 °F 30.01 in WNW 2.5 mph 6.9 mph 70 % 0.00 in
06:18 21.0 °F 12.7 °F 30.00 in WNW 2.2 mph 6.9 mph 70 % 0.00 in
06:23 20.9 °F 12.6 °F 30.01 in NW 0.7 mph 3.5 mph 70 % 0.00 in
06:28 20.9 °F 12.6 °F 30.01 in West 3.0 mph 9.2 mph 70 % 0.00 in
06:33 20.8 °F 12.2 °F 30.02 in NW 7.7 mph 9.2 mph 69 % 0.00 in
06:39 20.7 °F 12.1 °F 30.02 in West 5.1 mph 13.0 mph 69 % 0.00 in
06:44 20.7 °F 12.1 °F 30.03 in NNW 4.0 mph 8.1 mph 69 % 0.00 in
06:49 20.6 °F 12.0 °F 30.03 in NW 2.1 mph 3.5 mph 69 % 0.00 in
06:54 20.6 °F 12.4 °F 30.03 in West 2.8 mph 6.9 mph 70 % 0.00 in
06:59 20.6 °F 12.4 °F 30.03 in WNW 4.1 mph 4.6 mph 70 % 0.00 in
07:04 20.5 °F 12.6 °F 30.04 in West 2.5 mph 5.8 mph 71 % 0.00 in
07:09 20.4 °F 12.5 °F 30.03 in WNW 2.2 mph 6.9 mph 71 % 0.00 in
07:14 20.4 °F 12.5 °F 30.03 in West 3.6 mph 10.4 mph 71 % 0.00 in
07:19 20.3 °F 12.1 °F 30.04 in WNW 4.8 mph 10.4 mph 70 % 0.00 in
07:24 20.3 °F 12.1 °F 30.04 in WNW 2.5 mph 5.8 mph 70 % 0.00 in
07:29 20.2 °F 12.0 °F 30.04 in WNW 4.1 mph 8.1 mph 70 % 0.00 in
07:34 20.2 °F 12.0 °F 30.05 in West 5.9 mph 11.5 mph 70 % 0.00 in
07:39 20.2 °F 12.3 °F 30.05 in WNW 4.9 mph 8.1 mph 71 % 0.00 in
07:44 20.2 °F 12.3 °F 30.06 in West 5.6 mph 8.1 mph 71 % 0.00 in
07:49 20.2 °F 12.0 °F 30.06 in SW 2.7 mph 11.5 mph 70 % 0.00 in
07:54 20.3 °F 12.4 °F 30.06 in WNW 2.8 mph 10.4 mph 71 % 0.00 in
07:59 20.3 °F 12.4 °F 30.06 in WSW 4.2 mph 6.9 mph 71 % 0.00 in
08:05 20.4 °F 12.5 °F 30.06 in WSW 3.1 mph 5.8 mph 71 % 0.00 in
08:10 20.5 °F 12.6 °F 30.06 in WNW 1.0 mph 3.5 mph 71 % 0.00 in
08:15 20.7 °F 12.8 °F 30.06 in WSW 3.9 mph 7.0 mph 71 % 0.00 in
08:20 20.8 °F 12.6 °F 30.06 in WNW 4.3 mph 9.2 mph 70 % 0.00 in
08:25 21.0 °F 12.7 °F 30.06 in WNW 2.3 mph 9.2 mph 70 % 0.00 in
08:30 21.2 °F 12.9 °F 30.06 in West 4.3 mph 10.4 mph 70 % 0.00 in
08:35 21.4 °F 12.8 °F 30.06 in WNW 3.5 mph 6.9 mph 69 % 0.00 in
08:40 21.5 °F 12.6 °F 30.05 in NW 4.8 mph 8.1 mph 68 % 0.00 in
08:45 21.7 °F 12.4 °F 30.06 in West 5.4 mph 9.2 mph 67 % 0.00 in
08:50 21.9 °F 12.6 °F 30.05 in WNW 3.1 mph 6.9 mph 67 % 0.00 in
08:55 22.2 °F 12.9 °F 30.05 in WNW 1.2 mph 4.0 mph 67 % 0.00 in
09:00 22.6 °F 13.3 °F 30.05 in WNW 5.8 mph 9.2 mph 67 % 0.00 in
09:05 23.0 °F 13.3 °F 30.05 in WNW 2.9 mph 4.6 mph 66 % 0.00 in
09:10 23.4 °F 13.4 °F 30.05 in West 1.9 mph 9.2 mph 65 % 0.00 in
09:15 23.8 °F 13.4 °F 30.05 in WNW 2.5 mph 6.9 mph 64 % 0.00 in
09:20 24.0 °F 13.9 °F 30.06 in WNW 5.2 mph 6.9 mph 65 % 0.00 in
09:25 24.2 °F 13.8 °F 30.05 in WNW 2.4 mph 4.6 mph 64 % 0.00 in
09:31 24.4 °F 14.0 °F 30.05 in WNW 2.2 mph 3.5 mph 64 % 0.00 in
09:36 24.5 °F 13.7 °F 30.06 in NW 3.0 mph 12.0 mph 63 % 0.00 in
09:41 24.8 °F 14.0 °F 30.05 in NW 2.0 mph 10.0 mph 63 % 0.00 in
09:46 25.0 °F 14.2 °F 30.04 in WNW 5.0 mph 9.0 mph 63 % 0.00 in
09:51 25.3 °F 14.8 °F 30.05 in West 2.0 mph 5.0 mph 64 % 0.00 in
09:56 25.6 °F 14.7 °F 30.04 in West 3.3 mph 5.8 mph 63 % 0.00 in
10:01 25.9 °F 15.0 °F 30.05 in West 2.5 mph 6.9 mph 63 % 0.00 in
10:06 26.3 °F 15.0 °F 30.04 in NW 5.2 mph 9.2 mph 62 % 0.00 in
10:11 26.4 °F 14.8 °F 30.03 in West 1.0 mph 3.5 mph 61 % 0.00 in
10:16 26.7 °F 15.0 °F 30.03 in WNW 4.0 mph 6.0 mph 61 % 0.00 in
10:21 26.8 °F 14.8 °F 30.03 in West 3.4 mph 4.6 mph 60 % 0.00 in
10:26 27.1 °F 15.0 °F 30.01 in SSW 3.7 mph 6.9 mph 60 % 0.00 in
10:31 27.7 °F 16.7 °F 30.02 in NNW 1.6 mph 3.5 mph 63 % 0.00 in
10:36 28.0 °F 15.5 °F 30.01 in NNW 3.2 mph 5.8 mph 59 % 0.00 in
10:41 27.9 °F 15.4 °F 30.01 in NW 1.9 mph 4.6 mph 59 % 0.00 in
10:46 27.8 °F 15.7 °F 30.02 in WNW 4.7 mph 6.9 mph 60 % 0.00 in
10:51 27.7 °F 14.8 °F 30.02 in WNW 2.9 mph 8.1 mph 58 % 0.00 in
10:56 27.8 °F 15.7 °F 30.01 in NW 4.4 mph 5.8 mph 60 % 0.00 in
11:01 27.9 °F 15.4 °F 30.02 in WSW 4.7 mph 6.0 mph 59 % 0.00 in
11:06 27.9 °F 15.0 °F 30.02 in NW 2.2 mph 9.2 mph 58 % 0.00 in
11:11 27.8 °F 14.9 °F 30.01 in West 5.2 mph 6.9 mph 58 % 0.00 in
11:16 27.8 °F 14.9 °F 30.01 in NNW 2.4 mph 4.6 mph 58 % 0.00 in
11:21 27.9 °F 15.0 °F 30.01 in NW 3.2 mph 6.9 mph 58 % 0.00 in
11:26 27.9 °F 15.0 °F 30.02 in WNW 4.3 mph 8.1 mph 58 % 0.00 in
11:31 27.8 °F 14.9 °F 30.02 in SW 6.1 mph 10.4 mph 58 % 0.00 in
11:36 27.6 °F 14.7 °F 30.02 in WSW 3.7 mph 6.0 mph 58 % 0.00 in
11:39 27.6 °F 15.1 °F 30.02 in WNW 2.7 mph 8.1 mph 59 % 0.00 in
11:44 27.6 °F 15.1 °F 30.02 in WNW 4.7 mph 6.9 mph 59 % 0.00 in
11:49 27.5 °F 15.4 °F 30.02 in NW 2.4 mph 4.6 mph 60 % 0.00 in
11:54 27.5 °F 15.8 °F 30.01 in WSW 3.9 mph 8.0 mph 61 % 0.00 in
11:59 27.1 °F 15.4 °F 30.00 in WSW 9.2 mph 11.5 mph 61 % 0.00 in
12:04 26.9 °F 14.9 °F 30.00 in SW 4.8 mph 9.2 mph 60 % 0.00 in
12:09 26.8 °F 15.1 °F 30.00 in WSW 3.8 mph 7.0 mph 61 % 0.00 in
12:14 26.9 °F 15.6 °F 30.00 in WNW 4.2 mph 6.9 mph 62 % 0.00 in
12:19 27.0 °F 15.3 °F 29.99 in WSW 5.2 mph 7.0 mph 61 % 0.00 in
12:24 27.3 °F 15.2 °F 29.98 in WSW 3.8 mph 8.1 mph 60 % 0.00 in
12:30 27.5 °F 15.0 °F 29.98 in NW 7.7 mph 11.5 mph 59 % 0.00 in
12:35 27.7 °F 15.6 °F 29.98 in SSW 4.6 mph 8.1 mph 60 % 0.00 in
12:40 27.9 °F 16.2 °F 29.98 in WSW 2.9 mph 8.1 mph 61 % 0.00 in
12:45 28.1 °F 16.0 °F 29.97 in SW 4.9 mph 9.2 mph 60 % 0.00 in
12:50 28.1 °F 15.2 °F 29.97 in SW 3.8 mph 6.0 mph 58 % 0.00 in
12:55 28.4 °F 15.5 °F 29.97 in WSW 5.2 mph 9.2 mph 58 % 0.00 in
13:00 28.5 °F 15.2 °F 29.97 in West 3.1 mph 11.5 mph 57 % 0.00 in
13:05 28.7 °F 15.4 °F 29.96 in WSW 3.3 mph 8.1 mph 57 % 0.00 in
13:10 28.9 °F 15.6 °F 29.95 in WSW 2.2 mph 5.0 mph 57 % 0.00 in
13:15 29.1 °F 14.9 °F 29.94 in WNW 1.7 mph 4.0 mph 55 % 0.00 in
13:20 29.2 °F 14.6 °F 29.94 in West 2.0 mph 5.0 mph 54 % 0.00 in
13:25 29.6 °F 15.8 °F 29.94 in West 3.2 mph 4.0 mph 56 % 0.00 in
13:30 30.1 °F 16.7 °F 29.93 in WSW 0.3 mph 1.2 mph 57 % 0.00 in
13:35 30.7 °F 17.3 °F 29.94 in WSW 1.9 mph 3.0 mph 57 % 0.00 in
13:40 31.0 °F 16.3 °F 29.93 in WNW 2.7 mph 4.6 mph 54 % 0.00 in
13:45 31.1 °F 15.9 °F 29.93 in West 1.9 mph 5.0 mph 53 % 0.00 in
13:50 31.3 °F 16.6 °F 29.92 in WSW 3.1 mph 4.0 mph 54 % 0.00 in
13:55 31.6 °F 17.3 °F 29.92 in West 1.8 mph 3.5 mph 55 % 0.00 in
14:00 31.7 °F 16.1 °F 29.92 in West 0.4 mph 4.6 mph 52 % 0.00 in
14:06 31.9 °F 15.8 °F 29.91 in WNW 2.0 mph 6.0 mph 51 % 0.00 in
14:11 32.0 °F 16.3 °F 29.92 in West 2.0 mph 7.0 mph 52 % 0.00 in
14:16 32.2 °F 16.5 °F 29.91 in WSW 1.0 mph 4.0 mph 52 % 0.00 in
14:21 32.4 °F 16.7 °F 29.92 in WSW 2.0 mph 4.0 mph 52 % 0.00 in
14:26 32.6 °F 16.0 °F 29.91 in SW 1.0 mph 6.0 mph 50 % 0.00 in
14:31 32.7 °F 15.6 °F 29.92 in WSW 4.4 mph 5.8 mph 49 % 0.00 in
14:36 32.8 °F 16.2 °F 29.91 in SW 5.0 mph 7.0 mph 50 % 0.00 in
14:41 32.8 °F 15.7 °F 29.91 in WSW 2.0 mph 4.0 mph 49 % 0.00 in
14:46 32.8 °F 15.7 °F 29.91 in West 1.0 mph 6.0 mph 49 % 0.00 in
14:51 32.7 °F 15.2 °F 29.91 in WSW 2.0 mph 5.0 mph 48 % 0.00 in
14:56 32.6 °F 15.5 °F 29.91 in WSW 2.0 mph 6.0 mph 49 % 0.00 in
15:01 32.5 °F 15.9 °F 29.91 in Calm     50 % 0.00 in
15:06 32.4 °F 14.9 °F 29.91 in West 0.5 mph 2.3 mph 48 % 0.00 in
15:11 32.4 °F 14.9 °F 29.91 in WSW 1.4 mph 3.5 mph 48 % 0.00 in
15:16 32.4 °F 14.9 °F 29.91 in WSW 2.1 mph 3.5 mph 48 % 0.00 in
15:21 32.5 °F 14.5 °F 29.91 in WNW 3.3 mph 5.8 mph 47 % 0.00 in
15:26 32.5 °F 15.9 °F 29.91 in WNW 0.5 mph 2.3 mph 50 % 0.00 in
15:31 32.6 °F 15.1 °F 29.91 in West 1.9 mph 5.0 mph 48 % 0.00 in
15:36 32.6 °F 14.6 °F 29.91 in West 0.6 mph 2.3 mph 47 % 0.00 in
15:41 32.7 °F 15.1 °F 29.89 in West 1.3 mph 4.0 mph 48 % 0.00 in
15:46 32.7 °F 15.1 °F 29.90 in West 0.7 mph 3.5 mph 48 % 0.00 in
15:51 32.8 °F 15.2 °F 29.90 in SSW 4.2 mph 6.9 mph 48 % 0.00 in
15:57 32.7 °F 14.7 °F 29.90 in SW 5.3 mph 6.0 mph 47 % 0.00 in
16:02 32.7 °F 13.7 °F 29.90 in SW 2.9 mph 4.6 mph 45 % 0.00 in
16:07 32.6 °F 14.1 °F 29.90 in SW 4.8 mph 6.9 mph 46 % 0.00 in
16:12 32.6 °F 14.6 °F 29.90 in SSW 4.3 mph 6.9 mph 47 % 0.00 in
16:17 32.6 °F 15.1 °F 29.90 in SW 1.7 mph 3.5 mph 48 % 0.00 in
16:22 32.5 °F 15.9 °F 29.90 in SSW 4.2 mph 8.0 mph 50 % 0.00 in
16:27 32.4 °F 16.3 °F 29.89 in SSW 0.9 mph 3.5 mph 51 % 0.00 in
16:32 32.3 °F 16.6 °F 29.89 in SSW 5.0 mph 7.0 mph 52 % 0.00 in
16:37 32.1 °F 16.0 °F 29.89 in SW 1.0 mph 5.8 mph 51 % 0.00 in
16:42 32.0 °F 16.8 °F 29.89 in SSW 3.6 mph 4.6 mph 53 % 0.00 in
16:47 31.7 °F 16.1 °F 29.88 in SSW 1.8 mph 4.6 mph 52 % 0.00 in
16:52 31.5 °F 15.9 °F 29.88 in South 2.8 mph 4.6 mph 52 % 0.00 in
16:57 31.1 °F 15.5 °F 29.88 in South 0.7 mph 3.5 mph 52 % 0.00 in
17:02 30.9 °F 16.2 °F 29.88 in SSW 2.6 mph 6.9 mph 54 % 0.00 in
17:07 30.7 °F 16.4 °F 29.88 in South 5.4 mph 7.0 mph 55 % 0.00 in
17:13 30.5 °F 17.1 °F 29.88 in South 3.8 mph 7.0 mph 57 % 0.00 in
17:18 30.4 °F 17.0 °F 29.87 in South 5.4 mph 8.1 mph 57 % 0.00 in
17:23 30.1 °F 17.1 °F 29.87 in South 2.0 mph 6.0 mph 58 % 0.00 in
17:28 29.9 °F 17.3 °F 29.87 in SSW 4.2 mph 8.1 mph 59 % 0.00 in
17:33 29.8 °F 17.2 °F 29.87 in SSW 3.7 mph 5.0 mph 59 % 0.00 in
17:38 29.6 °F 17.4 °F 29.87 in South 3.3 mph 6.0 mph 60 % 0.00 in
17:43 29.5 °F 17.7 °F 29.86 in South 4.6 mph 6.9 mph 61 % 0.00 in
17:48 29.3 °F 17.9 °F 29.87 in South 2.7 mph 4.6 mph 62 % 0.00 in
17:53 29.2 °F 17.8 °F 29.87 in South 3.4 mph 5.8 mph 62 % 0.00 in
17:58 29.1 °F 18.1 °F 29.87 in SSW 2.6 mph 5.8 mph 63 % 0.00 in
18:03 29.0 °F 18.0 °F 29.86 in South 1.9 mph 4.0 mph 63 % 0.00 in
18:08 28.9 °F 18.2 °F 29.86 in SSW 1.2 mph 3.5 mph 64 % 0.00 in
18:13 28.8 °F 18.1 °F 29.86 in SW 1.1 mph 3.5 mph 64 % 0.00 in
18:18 28.8 °F 18.5 °F 29.86 in SW 3.1 mph 5.8 mph 65 % 0.00 in
18:23 28.7 °F 18.8 °F 29.85 in SSW 2.9 mph 3.5 mph 66 % 0.00 in
18:28 28.7 °F 18.8 °F 29.85 in South 1.9 mph 3.5 mph 66 % 0.00 in
18:33 28.6 °F 19.0 °F 29.84 in South 4.0 mph 5.8 mph 67 % 0.00 in
18:38 28.6 °F 18.7 °F 29.84 in SSW 1.0 mph 3.5 mph 66 % 0.00 in
18:43 28.6 °F 19.0 °F 29.85 in South 1.7 mph 5.8 mph 67 % 0.00 in
18:49 28.6 °F 19.0 °F 29.85 in South 3.3 mph 4.0 mph 67 % 0.00 in
18:54 28.6 °F 19.0 °F 29.84 in South 1.2 mph 3.5 mph 67 % 0.00 in
18:59 28.7 °F 19.1 °F 29.84 in South 2.5 mph 4.6 mph 67 % 0.00 in
19:04 28.7 °F 19.5 °F 29.84 in SSW 2.2 mph 3.5 mph 68 % 0.00 in
19:09 28.8 °F 19.9 °F 29.84 in South 4.4 mph 6.0 mph 69 % 0.00 in
19:14 28.8 °F 19.9 °F 29.84 in South 2.1 mph 3.5 mph 69 % 0.00 in
19:19 28.9 °F 20.3 °F 29.84 in WSW 2.5 mph 3.5 mph 70 % 0.00 in
19:24 29.0 °F 20.8 °F 29.83 in SSW 2.0 mph 3.5 mph 71 % 0.00 in
19:29 29.0 °F 21.1 °F 29.83 in SSW 2.9 mph 5.8 mph 72 % 0.00 in
19:34 29.1 °F 21.2 °F 29.83 in SSW 2.8 mph 4.6 mph 72 % 0.00 in
19:39 29.2 °F 21.6 °F 29.83 in SSW 4.3 mph 5.8 mph 73 % 0.00 in
19:44 29.3 °F 22.0 °F 29.83 in SW 4.5 mph 7.0 mph 74 % 0.00 in
19:49 29.4 °F 22.1 °F 29.83 in SSW 5.0 mph 9.2 mph 74 % 0.00 in
19:54 29.5 °F 22.6 °F 29.82 in South 2.9 mph 6.9 mph 75 % 0.00 in
19:59 29.7 °F 22.7 °F 29.82 in SSW 4.1 mph 8.1 mph 75 % 0.00 in
20:04 29.8 °F 22.8 °F 29.82 in WSW 4.4 mph 7.0 mph 75 % 0.00 in
20:09 29.9 °F 22.9 °F 29.81 in SSW 4.4 mph 9.2 mph 75 % 0.00 in
20:15 30.0 °F 23.0 °F 29.82 in South 5.8 mph 6.0 mph 75 % 0.00 in
20:20 30.1 °F 23.1 °F 29.82 in WSW 2.9 mph 5.8 mph 75 % 0.00 in
20:25 30.3 °F 23.3 °F 29.82 in SW 1.8 mph 5.8 mph 75 % 0.00 in
20:30 30.4 °F 23.4 °F 29.82 in SW 5.3 mph 9.2 mph 75 % 0.00 in
20:35 30.5 °F 23.5 °F 29.82 in South 4.8 mph 7.0 mph 75 % 0.00 in
20:40 30.7 °F 23.7 °F 29.82 in SSW 4.0 mph 8.1 mph 75 % 0.00 in
20:45 30.8 °F 23.8 °F 29.81 in SSW 5.8 mph 9.2 mph 75 % 0.00 in
20:50 31.0 °F 24.0 °F 29.81 in SSW 3.0 mph 4.0 mph 75 % 0.00 in
20:55 31.2 °F 24.2 °F 29.81 in South 4.1 mph 6.0 mph 75 % 0.00 in
21:00 31.3 °F 24.0 °F 29.81 in South 6.9 mph 11.5 mph 74 % 0.00 in
21:05 31.4 °F 24.1 °F 29.81 in SSW 3.5 mph 6.9 mph 74 % 0.00 in
21:10 31.6 °F 24.3 °F 29.81 in SSW 9.1 mph 17.3 mph 74 % 0.00 in
21:15 31.7 °F 24.0 °F 29.81 in South 10.4 mph 16.1 mph 73 % 0.00 in
21:20 31.8 °F 24.1 °F 29.81 in SW 3.7 mph 5.8 mph 73 % 0.00 in
21:25 31.9 °F 23.9 °F 29.81 in SSW 8.8 mph 16.1 mph 72 % 0.00 in
21:30 31.9 °F 23.9 °F 29.81 in SSW 7.5 mph 12.0 mph 72 % 0.00 in
21:35 31.9 °F 23.9 °F 29.81 in SW 6.8 mph 8.1 mph 72 % 0.00 in
21:40 32.0 °F 24.0 °F 29.81 in WSW 6.9 mph 13.0 mph 72 % 0.00 in
21:45 32.0 °F 24.0 °F 29.83 in SSW 6.5 mph 12.7 mph 72 % 0.00 in
21:50 32.0 °F 24.0 °F 29.83 in WSW 6.0 mph 13.0 mph 72 % 0.00 in
21:55 32.0 °F 24.3 °F 29.83 in SW 7.7 mph 11.5 mph 73 % 0.00 in
22:01 32.0 °F 24.3 °F 29.84 in WSW 7.8 mph 12.0 mph 73 % 0.00 in
22:06 32.0 °F 24.3 °F 29.83 in SW 4.7 mph 10.4 mph 73 % 0.00 in
22:11 32.0 °F 24.6 °F 29.83 in SW 5.0 mph 11.5 mph 74 % 0.00 in
22:16 32.0 °F 24.6 °F 29.83 in SSW 7.3 mph 13.8 mph 74 % 0.00 in
22:21 32.0 °F 25.0 °F 29.83 in SW 3.2 mph 8.1 mph 75 % 0.00 in
22:26 32.0 °F 25.0 °F 29.83 in SSW 3.2 mph 6.9 mph 75 % 0.00 in
22:31 32.0 °F 25.0 °F 29.82 in SSW 5.5 mph 8.1 mph 75 % 0.00 in
22:36 31.9 °F 25.2 °F 29.82 in SSW 5.6 mph 10.0 mph 76 % 0.00 in
22:41 32.0 °F 25.3 °F 29.82 in SSW 3.3 mph 11.5 mph 76 % 0.00 in
22:46 32.0 °F 25.0 °F 29.82 in SW 3.5 mph 5.8 mph 75 % 0.00 in
22:51 32.0 °F 25.0 °F 29.82 in SW 6.2 mph 11.5 mph 75 % 0.00 in
22:56 32.0 °F 25.0 °F 29.82 in WSW 4.4 mph 6.9 mph 75 % 0.00 in
23:01 32.0 °F 25.0 °F 29.81 in South 2.1 mph 6.9 mph 75 % 0.00 in
23:06 32.0 °F 25.0 °F 29.81 in WSW 3.2 mph 11.5 mph 75 % 0.00 in
23:11 32.1 °F 25.1 °F 29.82 in SW 4.8 mph 10.4 mph 75 % 0.00 in
23:16 32.1 °F 24.7 °F 29.82 in SSW 5.4 mph 10.4 mph 74 % 0.00 in
23:22 32.2 °F 24.8 °F 29.83 in SSW 3.3 mph 5.8 mph 74 % 0.00 in
23:27 32.2 °F 24.8 °F 29.83 in South 4.7 mph 9.2 mph 74 % 0.00 in
23:32 32.2 °F 24.5 °F 29.83 in SSW 4.8 mph 10.4 mph 73 % 0.00 in
23:37 32.3 °F 24.6 °F 29.82 in SW 4.5 mph 16.1 mph 73 % 0.00 in
23:42 32.3 °F 24.3 °F 29.82 in WSW 2.1 mph 4.6 mph 72 % 0.00 in
23:47 32.4 °F 24.4 °F 29.82 in SW 5.3 mph 11.5 mph 72 % 0.00 in
23:52 32.4 °F 24.0 °F 29.82 in South 5.6 mph 9.2 mph 71 % 0.00 in
23:57 32.4 °F 24.0 °F 29.82 in SW 2.9 mph 3.5 mph 71 % 0.00 in
Crab Meadow Weather
Compliments of Weather Underground - 3 mb

Script developed by  Jim McMurry - jmcmurry@mwt.net Adapted for the template by  Wim van der Kuil - Leuven-Template.eu

Weather Terms: Severe Thunderstorm Warning - A severe thunderstorm is indicated by Doppler radar or sighted by skywarn spotters. A severe thunderstorm contains large damaging hail, 1 inch diameter or larger, and/or damaging winds of around 60 mph or greater. These warnings are issued on a county by county basis by the local Weather Forecast Office in Upton.